User: anonymous   Login
Location: Unspecified
(0.0000°N, 0.0000°E)
Time: 03:26:49
(UTC+00:00)
Language:

CYGFM05 - Orbit

View from above orbital plane
View from above orbital plane
View from above satellite
View from above satellite

Ground track
Ground track

The orbit data is extracted from the following two-line orbital elements,

1 41884U 16078A   19049.76261885  .00000287  00000-0  17059-4 0  9996
2 41884  34.9556 190.0001 0015578  35.4241 324.7502 15.14310033120585
Epoch (UTC): 18 February 2019 18:18:10
Eccentricity: 0.0015578
inclination: 34.9556°
perigee height: 512 km
apogee height: 534 km
right ascension of ascending node: 190.0001°
argument of perigee: 35.4241°
revolutions per day: 15.14310033
mean anomaly at epoch: 324.7502°
orbit number at epoch: 12058

The dashed part of the orbit path shows where the satellite is in the earth's shadow,  

DLR